NORTHRYDE Weather Reports


time (UTC)temp
C
wind
direction
speed
KPH
gust
KPH
rain 1hr
cm
rain 24hr
cm
rain mn
cm
humidity
%
barometer
mb
20260504174643 14 270 3.2 4.8 0.00 0.28 0.00 84 1017.0
20260504174537 14 263 3.2 4.8 0.00 0.28 0.00 84 1017.1
20260504174338 15 265 1.6 4.8 0.00 0.28 0.00 84 1017.1
20260504174238 15 257 1.6 3.2 0.00 0.28 0.00 84 1017.1
20260504174140 15 268 1.6 6.4 0.00 0.28 0.00 84 1017.0
20260504174044 15 268 1.6 6.4 0.00 0.28 0.00 84 1017.0
20260504173940 15 268 1.6 6.4 0.00 0.28 0.00 84 1017.1
20260504173837 15 268 1.6 6.4 0.00 0.28 0.00 84 1017.1
20260504173737 15 268 1.6 6.4 0.00 0.28 0.00 84 1017.0
20260504173637 15 268 1.6 6.4 0.00 0.28 0.00 84 1017.0
20260504173539 15 268 1.6 6.4 0.00 0.28 0.00 84 1017.1
20260504173440 15 268 1.6 6.4 0.00 0.28 0.00 84 1017.1
20260504173338 15 268 3.2 6.4 0.00 0.28 0.00 84 1017.0
20260504173238 15 267 3.2 6.4 0.00 0.28 0.00 84 1017.0
20260504173139 15 269 1.6 4.8 0.00 0.28 0.00 84 1017.1
20260504173037 15 265 1.6 4.8 0.00 0.28 0.00 84 1017.1
20260504172932 15 262 3.2 4.8 0.00 0.28 0.00 84 1017.0
20260504172824 15 268 3.2 4.8 0.00 0.28 0.00 84 1017.1
20260504172756 15 265 3.2 4.8 0.00 0.28 0.00 84 1017.0
20260504172735 15 272 3.2 4.8 0.00 0.28 0.00 84 1017.0
20260504172708 15 268 0.0 4.8 0.00 0.28 0.00 84 1017.1
20260504172415 15 272 0.0 3.2 0.00 0.28 0.00 84 1017.1
20260504172311 15 272 0.0 1.6 0.00 0.28 0.00 84 1017.1
20260504172217 15 272 0.0 3.2 0.00 0.28 0.00 83 1017.1
20260504172111 15 272 0.0 4.8 0.00 0.28 0.00 84 1017.1
20260504172010 15 271 0.0 4.8 0.00 0.28 0.00 84 1017.1
20260504171910 15 271 0.0 4.8 0.00 0.28 0.00 84 1017.2
20260504171811 15 271 0.0 4.8 0.00 0.28 0.00 84 1017.1
20260504171713 15 271 0.0 4.8 0.00 0.28 0.00 84 1017.2
20260504171609 15 271 0.0 4.8 0.00 0.28 0.00 84 1017.2
20260504171509 15 271 1.6 4.8 0.00 0.28 0.00 83 1017.2
20260504171409 15 271 1.6 4.8 0.00 0.28 0.00 83 1017.2
20260504171310 15 271 1.6 4.8 0.00 0.28 0.00 83 1017.3
20260504171217 15 271 3.2 4.8 0.00 0.28 0.00 83 1017.3
20260504171116 15 272 3.2 4.8 0.00 0.28 0.00 83 1017.2
20260504171006 15 271 3.2 4.8 0.00 0.28 0.00 83 1017.2
20260504170909 15 272 1.6 4.8 0.00 0.28 0.00 83 1017.3
20260504170759 15 272 1.6 4.8 0.00 0.28 0.00 83 1017.3
20260504170714 15 272 1.6 4.8 0.00 0.28 0.00 83 1017.3
20260504170642 15 272 3.2 4.8 0.00 0.28 0.00 83 1017.3
20260504170548 15 272 1.6 3.2 0.00 0.28 0.00 83 1017.3
20260504170314 15 271 1.6 3.2 0.00 0.28 0.00 83 1017.3
20260504170247 15 271 1.6 3.2 0.00 0.28 0.00 83 1017.3
20260504170221 15 272 1.6 3.2 0.00 0.28 0.00 83 1017.2
20260504170158 15 272 1.6 3.2 0.00 0.28 0.00 83 1017.2
20260504160434 16 265 3.2 9.7 0.00 0.28 0.00 85 1017.5
20260504160324 16 262 3.2 9.7 0.00 0.28 0.00 85 1017.4
20260504160223 16 266 3.2 9.7 0.00 0.28 0.00 85 1017.5
20260504160123 16 257 3.2 9.7 0.00 0.28 0.00 85 1017.5
20260504151140 17 240 1.6 3.2 0.00 0.28 0.00 88 1017.1
20260504151011 17 238 0.0 3.2 0.00 0.28 0.00 88 1017.2
20260504150908 17 211 1.6 3.2 0.00 0.28 0.00 88 1017.1
20260504150811 17 211 1.6 3.2 0.00 0.28 0.00 88 1017.2
20260504150709 17 211 0.0 3.2 0.00 0.28 0.00 88 1017.1
20260504150557 17 268 0.0 4.8 0.00 0.28 0.00 88 1017.2
20260504150501 17 268 0.0 4.8 0.00 0.28 0.00 88 1017.2
20260504150256 17 275 0.0 4.8 0.00 0.28 0.00 88 1017.3
20260504150208 17 275 0.0 6.4 0.00 0.28 0.00 88 1017.3
20260504150145 17 275 0.0 6.4 0.00 0.28 0.00 88 1017.3
20260504150128 17 275 1.6 6.4 0.00 0.28 0.00 88 1017.4
20260504141309 17 271 3.2 9.7 0.00 0.28 0.00 88 1017.2
20260504141214 17 270 3.2 9.7 0.00 0.28 0.00 88 1017.3
20260504141120 17 261 4.8 9.7 0.00 0.28 0.00 88 1017.2
20260504141010 17 244 3.2 9.7 0.00 0.28 0.00 87 1017.2
20260504140914 17 258 3.2 9.7 0.00 0.28 0.00 87 1017.4
20260504140812 17 281 3.2 9.7 0.00 0.28 0.00 87 1017.3
20260504140712 17 259 3.2 9.7 0.00 0.28 0.00 87 1017.5
20260504140610 17 275 4.8 9.7 0.00 0.28 0.00 87 1017.4
20260504140509 17 277 4.8 9.7 0.00 0.28 0.00 87 1017.4
20260504140414 17 259 3.2 9.7 0.00 0.28 0.00 87 1017.3
20260504140310 17 271 3.2 9.7 0.00 0.28 0.00 87 1017.3
20260504140217 17 292 3.2 9.7 0.00 0.28 0.00 87 1017.3
20260504140113 17 256 3.2 9.7 0.00 0.28 0.00 87 1017.3
20260504130737 18 258 4.8 11.3 0.00 0.28 0.28 83 1017.2
20260504130635 18 266 4.8 11.3 0.00 0.28 0.28 83 1017.2
20260504130534 18 263 3.2 9.7 0.00 0.28 0.28 83 1017.2
20260504130432 18 286 3.2 9.7 0.00 0.28 0.28 83 1017.2
20260504130337 18 302 3.2 9.7 0.00 0.28 0.28 83 1017.3
20260504130234 18 286 1.6 9.7 0.00 0.28 0.28 83 1017.2
20260504130145 18 253 1.6 12.9 0.00 0.28 0.28 83 1017.2
20260504130121 18 246 3.2 12.9 0.00 0.28 0.28 83 1017.2
20260504130104 18 265 3.2 12.9 0.00 0.28 0.28 83 1017.2
20260504120237 18 274 3.2 6.4 0.00 0.28 0.28 81 1016.9
20260504120139 18 262 3.2 6.4 0.00 0.28 0.28 81 1017.0
20260504110646 19 22 3.2 12.9 0.00 0.28 0.28 80 1016.5
20260504110617 19 5 1.6 12.9 0.00 0.28 0.28 80 1016.5
20260504110553 19 333 3.2 12.9 0.00 0.28 0.28 80 1016.6
20260504110253 19 15 4.8 12.9 0.00 0.28 0.28 80 1016.6
20260504110151 19 15 4.8 12.9 0.00 0.28 0.28 80 1016.5
20260504110114 19 46 4.8 12.9 0.00 0.28 0.28 80 1016.5
20260504100610 19 30 6.4 12.9 0.00 0.28 0.28 81 1015.9
20260504100511 19 46 6.4 12.9 0.00 0.28 0.28 81 1015.9
20260504100410 19 55 6.4 11.3 0.00 0.28 0.28 81 1015.9
20260504100215 19 18 4.8 9.7 0.00 0.28 0.28 81 1016.0
20260504100112 19 53 4.8 9.7 0.00 0.28 0.28 81 1016.0
20260504081909 19 66 4.8 11.3 0.00 0.28 0.28 84 1015.9
20260504081809 19 57 4.8 11.3 0.00 0.28 0.28 84 1016.0
20260504081711 19 29 3.2 11.3 0.00 0.28 0.28 84 1016.0
20260504081611 19 36 3.2 11.3 0.00 0.28 0.28 84 1015.9
20260504081511 19 28 3.2 11.3 0.00 0.28 0.28 83 1015.9
20260504081410 19 27 3.2 11.3 0.00 0.28 0.28 84 1015.9
20260504081315 19 42 3.2 9.7 0.00 0.28 0.28 84 1016.0
20260504081215 19 79 4.8 9.7 0.00 0.28 0.28 84 1016.0
20260504081114 19 63 4.8 9.7 0.00 0.28 0.28 84 1015.8
20260504081010 19 52 4.8 9.7 0.00 0.28 0.28 84 1015.9
20260504080914 19 31 4.8 9.7 0.00 0.28 0.28 84 1015.9
20260504080810 19 53 4.8 9.7 0.00 0.28 0.28 84 1015.9
20260504080737 19 39 3.2 8.0 0.00 0.28 0.28 84 1016.0
20260504080609 19 5 3.2 8.0 0.00 0.28 0.28 84 1015.9
20260504080528 19 50 3.2 6.4 0.00 0.28 0.28 84 1016.0
20260504080503 19 69 3.2 6.4 0.00 0.28 0.28 84 1016.0
20260504080443 19 55 3.2 6.4 0.00 0.28 0.28 84 1016.0
20260504080407 19 5 3.2 6.4 0.00 0.28 0.28 84 1015.9
20260504080130 19 42 3.2 6.4 0.00 0.28 0.28 84 1015.9
20260504070336 20 355 3.2 6.4 0.00 0.28 0.28 81 1015.5
20260504070137 20 329 1.6 6.4 0.00 0.28 0.28 81 1015.5
20260504060246 21 45 6.4 11.3 0.00 0.28 0.28 75 1015.6
20260504060145 21 10 6.4 11.3 0.00 0.28 0.28 75 1015.5
20260504050738 21 10 3.2 9.7 0.00 0.28 0.28 80 1015.7
20260504050639 21 352 8.0 9.7 0.00 0.28 0.28 80 1015.7
20260504050542 21 329 6.4 9.7 0.00 0.28 0.28 80 1015.8
20260504050438 21 323 3.2 14.5 0.00 0.28 0.28 81 1015.7
20260504050344 21 325 1.6 14.5 0.00 0.28 0.28 81 1015.7
20260504050233 21 327 1.6 14.5 0.00 0.28 0.28 81 1015.8
20260504050204 21 327 1.6 14.5 0.00 0.28 0.28 81 1015.7
20260504045955 20 327 3.2 16.1 0.00 0.28 0.28 81 1015.6
20260504045934 20 336 6.4 16.1 0.00 0.28 0.28 81 1015.7
20260504045620 20 0 4.8 16.1 0.00 0.28 0.28 81 1015.7
20260504045511 20 352 4.8 16.1 0.00 0.28 0.28 81 1015.8
20260504045415 20 320 6.4 16.1 0.00 0.28 0.28 82 1015.7
20260504045310 20 350 6.4 16.1 0.00 0.28 0.28 82 1015.7
20260504045111 20 0 8.0 16.1 0.00 0.28 0.28 83 1015.7
20260504045010 20 28 9.7 16.1 0.00 0.28 0.28 83 1015.7
20260504044912 20 346 4.8 16.1 0.00 0.28 0.28 84 1015.7
20260504044812 20 331 4.8 8.0 0.00 0.28 0.28 84 1015.8
20260504044611 20 5 4.8 8.0 0.00 0.28 0.28 84 1015.8
20260504044513 20 326 6.4 8.0 0.00 0.28 0.28 84 1015.7
20260504044410 20 11 4.8 8.0 0.00 0.28 0.28 85 1015.8
20260504044311 20 339 3.2 8.0 0.00 0.28 0.28 85 1015.7
20260504044109 20 335 1.6 9.7 0.00 0.28 0.28 85 1015.7
20260504044010 20 34 1.6 9.7 0.00 0.28 0.28 85 1015.6
20260504043912 20 34 1.6 9.7 0.00 0.28 0.28 85 1015.6
20260504043811 20 329 1.6 9.7 0.00 0.28 0.28 85 1015.6
20260504043629 20 9 3.2 12.9 0.00 0.28 0.28 85 1015.7
20260504043604 20 9 6.4 12.9 0.00 0.28 0.28 85 1015.6
20260504043545 20 5 6.4 12.9 0.00 0.28 0.28 85 1015.7
20260504043517 20 53 4.8 12.9 0.00 0.28 0.28 85 1015.8
20260504043201 20 30 3.2 12.9 0.00 0.28 0.28 85 1015.7
20260504043059 20 349 3.2 12.9 0.03 0.28 0.28 86 1015.7
20260504042958 20 69 3.2 12.9 0.05 0.28 0.28 86 1015.8
20260504042859 20 331 4.8 12.9 0.05 0.28 0.28 86 1015.8
20260504042754 20 38 3.2 12.9 0.05 0.28 0.28 86 1015.8
20260504042649 20 348 1.6 9.7 0.05 0.28 0.28 86 1015.8
20260504042551 20 53 3.2 6.4 0.05 0.28 0.28 86 1015.7
20260504042447 20 53 1.6 8.0 0.05 0.28 0.28 86 1015.8
20260504042342 20 39 3.2 8.0 0.05 0.28 0.28 86 1015.8
20260504042240 20 48 3.2 9.7 0.05 0.28 0.28 86 1015.7
20260504042139 20 26 3.2 9.7 0.05 0.28 0.28 86 1015.8
20260504042039 20 331 3.2 9.7 0.05 0.28 0.28 86 1015.8
20260504041940 20 5 3.2 9.7 0.05 0.28 0.28 86 1015.8
20260504041837 20 5 3.2 9.7 0.05 0.28 0.28 86 1015.8
20260504041739 20 352 3.2 9.7 0.05 0.28 0.28 86 1015.8
20260504041638 20 9 3.2 9.7 0.05 0.28 0.28 86 1015.8
20260504041537 20 5 6.4 9.7 0.05 0.28 0.28 86 1015.8
20260504041439 20 50 6.4 9.7 0.05 0.28 0.28 87 1015.8
20260504041337 20 15 4.8 9.7 0.05 0.28 0.28 87 1015.9
20260504041237 20 31 4.8 9.7 0.05 0.28 0.28 87 1016.0
20260504041138 19 63 6.4 11.3 0.05 0.28 0.28 87 1015.9
20260504041036 19 17 4.8 11.3 0.05 0.28 0.28 87 1016.0
20260504040936 19 41 3.2 11.3 0.05 0.28 0.28 88 1015.9
20260504040836 19 5 4.8 11.3 0.05 0.28 0.28 88 1016.1
20260504040740 19 28 6.4 11.3 0.05 0.28 0.28 88 1016.1
20260504040637 19 37 6.4 11.3 0.05 0.28 0.28 88 1016.1
20260504040539 19 16 6.4 11.3 0.05 0.28 0.28 88 1016.0
20260504040438 19 47 6.4 11.3 0.05 0.28 0.28 88 1016.0
20260504040337 19 69 4.8 11.3 0.05 0.28 0.28 89 1016.1
20260504040249 19 43 4.8 11.3 0.05 0.28 0.28 89 1016.1
20260504040141 19 9 4.8 9.7 0.05 0.28 0.28 89 1016.1
20260504040037 19 47 3.2 9.7 0.05 0.28 0.28 89 1016.2
20260504035934 19 28 3.2 9.7 0.05 0.23 0.28 89 1016.2
20260504035820 19 53 4.8 9.7 0.05 0.23 0.28 89 1016.2
20260504035723 19 51 4.8 9.7 0.05 0.23 0.28 89 1016.2
20260504035618 19 61 3.2 8.0 0.05 0.23 0.28 89 1016.0
20260504035515 19 32 4.8 6.4 0.05 0.23 0.28 89 1016.1
20260504035415 19 31 3.2 6.4 0.05 0.23 0.28 89 1016.1
20260504035312 19 40 3.2 6.4 0.05 0.23 0.28 90 1016.2
20260504035211 19 30 3.2 8.0 0.05 0.23 0.28 90 1016.2
20260504035112 18 43 4.8 8.0 0.05 0.23 0.28 90 1016.2
20260504035009 18 61 4.8 8.0 0.05 0.23 0.28 90 1016.1
20260504034909 18 43 1.6 8.0 0.05 0.23 0.28 90 1016.1
20260504034809 18 31 1.6 8.0 0.05 0.23 0.28 90 1016.2
20260504034709 18 36 3.2 8.0 0.05 0.23 0.28 90 1016.2
20260504034611 18 22 4.8 8.0 0.05 0.23 0.28 89 1016.2
20260504034510 18 30 3.2 8.0 0.05 0.23 0.28 89 1016.3
20260504034412 18 43 3.2 8.0 0.05 0.23 0.28 89 1016.2
20260504034310 18 63 3.2 8.0 0.05 0.23 0.28 89 1016.3
20260504034211 18 17 3.2 8.0 0.05 0.23 0.28 89 1016.3
20260504034115 18 9 3.2 8.0 0.05 0.23 0.28 89 1016.4
20260504034009 18 65 4.8 8.0 0.05 0.23 0.28 89 1016.3
20260504033909 18 44 3.2 8.0 0.05 0.23 0.28 89 1016.3
20260504033810 18 55 1.6 8.0 0.05 0.23 0.28 89 1016.2
20260504033713 18 59 1.6 8.0 0.05 0.23 0.28 89 1016.3
20260504033612 18 32 1.6 8.0 0.05 0.23 0.28 89 1016.2
20260504033510 18 65 1.6 8.0 0.05 0.23 0.28 89 1016.3
20260504033410 18 33 1.6 8.0 0.08 0.23 0.28 89 1016.2
20260504033310 18 73 3.2 8.0 0.08 0.23 0.28 89 1016.2
20260504033238 18 73 4.8 8.0 0.08 0.23 0.25 89 1016.3
20260504033112 18 66 4.8 8.0 0.05 0.23 0.23 89 1016.3
20260504033022 18 76 3.2 11.3 0.05 0.23 0.23 89 1016.4
20260504032957 18 28 3.2 11.3 0.03 0.23 0.23 89 1016.4
20260504032935 18 59 1.6 11.3 0.03 0.23 0.23 89 1016.4
20260504032906 18 59 3.2 11.3 0.05 0.23 0.23 89 1016.6
20260504032610 18 54 3.2 11.3 0.05 0.23 0.23 89 1016.6
20260504032510 18 42 3.2 11.3 0.05 0.23 0.23 88 1016.6
20260504032408 18 55 4.8 11.3 0.05 0.23 0.23 88 1016.6
20260504032310 18 50 6.4 11.3 0.05 0.23 0.23 88 1016.5
20260504032208 18 34 6.4 11.3 0.05 0.23 0.23 88 1016.6
20260504032109 18 63 3.2 11.3 0.05 0.23 0.23 88 1016.6
20260504032014 18 55 3.2 8.0 0.08 0.23 0.23 89 1016.6
20260504031909 18 51 3.2 8.0 0.08 0.23 0.23 89 1016.5
20260504031814 18 66 1.6 8.0 0.08 0.23 0.23 89 1016.6
20260504031709 18 42 3.2 8.0 0.08 0.23 0.23 88 1016.6
20260504031611 18 42 1.6 8.0 0.10 0.23 0.23 88 1016.8
20260504031513 18 21 0.0 8.0 0.10 0.23 0.23 88 1016.8
20260504031411 18 27 1.6 4.8 0.10 0.23 0.23 88 1016.7
20260504031309 18 27 1.6 4.8 0.10 0.23 0.23 88 1016.6
20260504031211 18 27 1.6 4.8 0.10 0.23 0.23 88 1016.7
20260504031110 18 21 1.6 3.2 0.13 0.23 0.23 88 1016.7
20260504031011 18 21 0.0 3.2 0.13 0.23 0.23 88 1016.7
20260504030911 18 21 0.0 3.2 0.13 0.23 0.23 88 1016.8
20260504030813 18 21 0.0 3.2 0.13 0.23 0.23 88 1016.8
20260504030710 18 21 0.0 3.2 0.15 0.23 0.23 88 1016.9
20260504030614 18 21 0.0 3.2 0.15 0.23 0.23 88 1016.8
20260504030509 18 21 0.0 3.2 0.15 0.23 0.23 88 1016.8
20260504030412 18 22 1.6 3.2 0.15 0.23 0.23 88 1016.9
20260504030312 18 352 0.0 3.2 0.15 0.23 0.23 88 1016.9
20260504030230 18 352 0.0 4.8 0.15 0.23 0.23 88 1016.9
20260504030111 18 37 0.0 4.8 0.15 0.23 0.23 88 1017.0
20260504030013 18 37 0.0 4.8 0.15 0.08 0.23 88 1017.0
20260504025913 18 39 0.0 4.8 0.15 0.08 0.23 88 1016.9
20260504025809 18 39 0.0 4.8 0.15 0.08 0.23 88 1016.9
20260504025718 18 34 0.0 4.8 0.15 0.08 0.23 88 1017.0
20260504025610 18 34 0.0 4.8 0.15 0.08 0.23 88 1017.0
20260504025509 18 34 1.6 6.4 0.15 0.08 0.23 88 1016.9
20260504025412 18 34 1.6 6.4 0.15 0.08 0.23 88 1017.0
20260504025308 18 34 1.6 6.4 0.15 0.08 0.23 88 1017.1
20260504025212 18 348 1.6 6.4 0.15 0.08 0.23 88 1017.0
20260504025112 18 352 1.6 6.4 0.15 0.08 0.23 88 1017.1
20260504025012 18 15 1.6 6.4 0.15 0.08 0.23 87 1017.1
20260504024910 18 43 3.2 6.4 0.15 0.08 0.23 87 1017.2
20260504024809 18 327 3.2 6.4 0.15 0.08 0.23 87 1017.3
20260504024711 18 24 1.6 8.0 0.15 0.08 0.23 87 1017.4
20260504024611 18 355 1.6 8.0 0.15 0.08 0.23 87 1017.4
20260504024514 18 0 1.6 8.0 0.15 0.08 0.23 87 1017.3
20260504024409 18 341 0.0 8.0 0.15 0.08 0.23 87 1017.5
20260504024309 18 328 1.6 8.0 0.15 0.08 0.23 87 1017.5
20260504024211 18 347 3.2 8.0 0.15 0.08 0.23 87 1017.4
20260504024109 18 338 3.2 8.0 0.15 0.08 0.23 87 1017.5
20260504024011 18 321 3.2 8.0 0.15 0.08 0.23 87 1017.5
20260504023911 18 355 4.8 8.0 0.15 0.08 0.23 87 1017.5
20260504023808 18 5 4.8 8.0 0.15 0.08 0.23 87 1017.5
20260504023716 18 325 3.2 8.0 0.15 0.08 0.23 87 1017.5
20260504023610 18 5 3.2 8.0 0.15 0.08 0.23 87 1017.5
20260504023511 18 334 3.2 8.0 0.15 0.08 0.20 87 1017.6
20260504023407 18 355 3.2 9.7 0.15 0.08 0.20 87 1017.6
20260504023309 18 311 3.2 9.7 0.15 0.08 0.20 87 1017.6
20260504023219 18 333 3.2 19.3 0.15 0.08 0.20 87 1017.5
20260504023103 18 315 4.8 19.3 0.15 0.08 0.20 87 1017.6
20260504023002 18 329 3.2 19.3 0.15 0.08 0.20 87 1017.7
20260504022858 18 306 3.2 19.3 0.15 0.08 0.20 87 1017.7
20260504022755 18 342 4.8 19.3 0.15 0.08 0.18 87 1017.6
20260504022655 18 343 4.8 19.3 0.15 0.08 0.18 87 1017.7
20260504022555 18 311 6.4 19.3 0.15 0.08 0.18 86 1017.7
20260504022449 18 321 8.0 19.3 0.15 0.08 0.15 86 1017.8
20260504022346 18 324 8.0 19.3 0.13 0.08 0.15 86 1017.8
20260504022248 18 278 4.8 19.3 0.13 0.08 0.15 86 1017.9
20260504022209 18 311 3.2 9.7 0.15 0.08 0.15 86 1017.8
20260504022039 18 291 4.8 9.7 0.15 0.08 0.15 86 1017.8
20260504021937 18 308 4.8 9.7 0.13 0.08 0.15 86 1017.9
20260504021837 18 331 3.2 9.7 0.13 0.08 0.15 86 1018.0
20260504021739 18 285 4.8 9.7 0.13 0.08 0.13 86 1018.0
20260504021559 19 311 1.6 9.7 0.10 0.08 0.13 86 1018.0
20260504021536 19 288 1.6 9.7 0.10 0.08 0.13 86 1018.1
20260504021518 19 325 3.2 9.7 0.10 0.08 0.13 86 1018.1
20260504021456 19 317 3.2 9.7 0.10 0.08 0.13 86 1018.1
20260504021424 19 302 3.2 9.7 0.10 0.08 0.10 86 1018.1
20260504021038 19 311 1.6 6.4 0.10 0.08 0.10 86 1018.1
20260504020941 19 297 0.0 6.4 0.10 0.08 0.10 86 1018.2
20260504020738 19 292 1.6 6.4 0.08 0.08 0.08 86 1018.2
20260504020542 19 305 3.2 6.4 0.08 0.08 0.08 86 1018.2
20260504020437 19 319 4.8 6.4 0.08 0.08 0.08 86 1018.2
20260504020340 19 350 3.2 6.4 0.08 0.08 0.08 86 1018.1
20260504020238 19 13 3.2 6.4 0.08 0.08 0.08 86 1018.1
20260504020137 19 346 1.6 6.4 0.08 0.08 0.08 86 1018.2
20260504020040 19 43 1.6 6.4 0.08 0.08 0.08 86 1018.2
20260504015953 19 348 1.6 6.4 0.08 0.00 0.08 86 1018.1
20260504015932 19 347 1.6 6.4 0.08 0.00 0.08 86 1018.3
20260504015912 19 343 3.2 6.4 0.08 0.00 0.08 86 1018.3
20260504015634 19 336 3.2 6.4 0.08 0.00 0.08 86 1018.3
20260504015523 19 327 3.2 4.8 0.08 0.00 0.08 86 1018.3
20260504015423 19 332 1.6 4.8 0.08 0.00 0.08 86 1018.4
20260504015320 19 321 1.6 3.2 0.08 0.00 0.08 86 1018.3
20260504015219 19 321 1.6 3.2 0.08 0.00 0.08 86 1018.3
20260504015117 19 321 1.6 3.2 0.08 0.00 0.08 86 1018.3
20260504015014 19 321 1.6 4.8 0.08 0.00 0.08 86 1018.3
20260504014911 19 321 1.6 4.8 0.08 0.00 0.08 86 1018.4
20260504014810 19 323 1.6 6.4 0.08 0.00 0.08 85 1018.4
20260504014710 19 323 3.2 6.4 0.08 0.00 0.05 85 1018.4
20260504014609 19 300 1.6 6.4 0.08 0.00 0.05 85 1018.4
20260504014513 19 296 0.0 6.4 0.05 0.00 0.05 85 1018.4
20260504014409 19 280 1.6 6.4 0.05 0.00 0.05 85 1018.5
20260504014309 19 280 3.2 6.4 0.05 0.00 0.05 85 1018.5
20260504014211 19 281 3.2 6.4 0.05 0.00 0.05 85 1018.4
20260504014114 19 288 3.2 6.4 0.05 0.00 0.05 85 1018.5
20260504014013 19 275 3.2 6.4 0.05 0.00 0.05 85 1018.5
20260504013920 20 278 1.6 6.4 0.05 0.00 0.05 85 1018.5
20260504013855 20 272 1.6 6.4 0.05 0.00 0.05 85 1018.5
20260504013833 20 303 3.2 6.4 0.05 0.00 0.05 85 1018.5
20260504013801 20 303 3.2 6.4 0.05 0.00 0.05 85 1018.6
20260504013517 20 304 3.2 6.4 0.05 0.00 0.05 85 1018.5
20260504013452 20 321 1.6 6.4 0.05 0.00 0.05 85 1018.6
20260504013431 20 323 0.0 6.4 0.05 0.00 0.05 85 1018.5
20260504013412 20 280 0.0 4.8 0.05 0.00 0.05 84 1018.5
20260504013104 20 280 0.0 6.4 0.05 0.00 0.05 84 1018.6
20260504012954 20 280 1.6 6.4 0.05 0.00 0.05 84 1018.6
20260504012856 20 279 1.6 6.4 0.05 0.00 0.05 84 1018.5
20260504012751 20 279 1.6 6.4 0.05 0.00 0.05 84 1018.6
20260504012649 20 279 1.6 6.4 0.05 0.00 0.05 84 1018.6
20260504012548 20 279 1.6 6.4 0.05 0.00 0.05 84 1018.7
20260504012502 20 279 1.6 6.4 0.05 0.00 0.05 84 1018.6
20260504012438 20 284 3.2 6.4 0.05 0.00 0.05 84 1018.7
20260504012417 20 284 4.8 6.4 0.05 0.00 0.03 84 1018.7
20260504012356 20 303 3.2 6.4 0.03 0.00 0.03 84 1018.9
20260504012037 20 276 1.6 6.4 0.03 0.00 0.03 84 1018.8
20260504011939 20 275 3.2 6.4 0.03 0.00 0.03 84 1018.9
20260504011841 20 277 3.2 6.4 0.03 0.00 0.03 84 1018.8
20260504011740 20 269 3.2 6.4 0.03 0.00 0.03 84 1018.8
20260504011640 20 279 1.6 6.4 0.03 0.00 0.03 83 1018.8
20260504011543 20 290 1.6 6.4 0.03 0.00 0.03 83 1018.9
20260504011438 20 273 1.6 6.4 0.03 0.00 0.03 83 1018.9
20260504011336 20 284 1.6 6.4 0.03 0.00 0.03 83 1018.9
20260504011237 20 290 1.6 6.4 0.03 0.00 0.03 83 1018.9
20260504011143 20 290 3.2 6.4 0.03 0.00 0.03 83 1018.9
20260504011038 20 290 3.2 6.4 0.00 0.00 0.00 83 1018.9
20260504010942 20 282 3.2 6.4 0.00 0.00 0.00 83 1018.9
20260504010839 20 299 3.2 6.4 0.00 0.00 0.00 83 1018.9
20260504010737 20 285 3.2 4.8 0.00 0.00 0.00 83 1018.9
20260504010639 20 333 3.2 4.8 0.00 0.00 0.00 83 1019.0
20260504010540 20 305 3.2 4.8 0.00 0.00 0.00 83 1019.0
20260504010440 20 311 3.2 4.8 0.00 0.00 0.00 82 1019.0
20260504010338 20 301 3.2 4.8 0.00 0.00 0.00 82 1019.0
20260504010237 20 323 1.6 4.8 0.00 0.00 0.00 82 1018.9
20260504010140 20 323 3.2 3.2 0.00 0.00 0.00 82 1018.9
20260504010037 20 323 1.6 3.2 0.00 0.00 0.00 83 1018.8
20260504010010 20 323 0.0 3.2 0.00 0.00 0.00 83 1018.8
20260504005916 20 323 0.0 3.2 0.00 0.00 0.00 83 1018.8
20260504005856 20 323 1.6 3.2 0.00 0.00 0.00 83 1018.8
20260504005834 20 334 1.6 3.2 0.00 0.00 0.00 83 1018.8
20260504005527 20 340 1.6 3.2 0.00 0.00 0.00 84 1018.9
20260504005431 20 329 1.6 3.2 0.00 0.00 0.00 84 1018.8
20260504005318 20 325 0.0 3.2 0.00 0.00 0.00 84 1018.8
20260504005212 20 343 0.0 3.2 0.00 0.00 0.00 84 1018.8
20260504005012 20 343 0.0 3.2 0.00 0.00 0.00 84 1018.8
20260504004909 20 343 0.0 3.2 0.00 0.00 0.00 84 1018.8
20260504004810 20 343 1.6 4.8 0.00 0.00 0.00 84 1018.7
20260504004711 20 343 1.6 4.8 0.00 0.00 0.00 84 1018.8
20260504004515 20 57 0.0 4.8 0.00 0.00 0.00 84 1018.7
20260504004412 20 57 0.0 4.8 0.00 0.00 0.00 84 1018.7
20260504004310 20 57 1.6 4.8 0.00 0.00 0.00 84 1018.7
20260504004209 20 57 1.6 4.8 0.00 0.00 0.00 84 1018.6
20260504004011 20 57 1.6 4.8 0.00 0.00 0.00 85 1018.7
20260504003933 20 57 3.2 4.8 0.00 0.00 0.00 85 1018.6
20260504003916 20 57 3.2 4.8 0.00 0.00 0.00 85 1018.6
20260504003853 20 57 0.0 4.8 0.00 0.00 0.00 85 1018.7
20260504003827 20 46 0.0 4.8 0.00 0.00 0.00 86 1018.7
20260504003509 20 71 0.0 3.2 0.00 0.00 0.00 86 1018.6
20260504003412 20 71 0.0 3.2 0.00 0.00 0.00 86 1018.6
20260504003310 20 71 0.0 3.2 0.00 0.00 0.00 86 1018.7
20260504003210 20 71 0.0 3.2 0.00 0.00 0.00 86 1018.6
20260504003011 20 71 0.0 3.2 0.00 0.00 0.00 86 1018.5
20260504002909 20 71 1.6 3.2 0.00 0.00 0.00 87 1018.6
20260504002759 20 71 0.0 3.2 0.00 0.00 0.00 87 1018.6
20260504002701 19 104 0.0 3.2 0.00 0.00 0.00 87 1018.6
20260504002553 19 122 0.0 3.2 0.00 0.00 0.00 87 1018.6
20260504002449 19 122 0.0 3.2 0.00 0.00 0.00 88 1018.5
20260504002349 19 122 1.6 3.2 0.00 0.00 0.00 88 1018.5
20260504002245 19 122 1.6 3.2 0.00 0.00 0.00 88 1018.5
20260504002144 19 122 0.0 3.2 0.00 0.00 0.00 88 1018.5
20260504002038 19 122 0.0 1.6 0.00 0.00 0.00 88 1018.5
20260504001938 19 122 0.0 1.6 0.00 0.00 0.00 88 1018.5
20260504001842 19 122 0.0 1.6 0.00 0.00 0.00 89 1018.5
20260504001737 19 122 0.0 1.6 0.00 0.00 0.00 88 1018.5
20260504001636 19 122 0.0 1.6 0.00 0.00 0.00 89 1018.6
20260504001538 19 122 1.6 3.2 0.00 0.00 0.00 89 1018.5
20260504001438 19 122 0.0 3.2 0.00 0.00 0.00 89 1018.5
20260504001340 19 122 0.0 3.2 0.00 0.00 0.00 89 1018.6
20260504001239 18 122 0.0 3.2 0.00 0.00 0.00 89 1018.6
20260504001139 18 122 0.0 3.2 0.00 0.00 0.00 89 1018.6
20260504001038 18 122 0.0 3.2 0.00 0.00 0.00 89 1018.6
20260504000937 18 122 0.0 3.2 0.00 0.00 0.00 89 1018.6
20260504000837 18 122 0.0 3.2 0.00 0.00 0.00 89 1018.6
20260504000743 18 122 1.6 3.2 0.00 0.00 0.00 89 1018.5
20260504000638 18 122 1.6 3.2 0.00 0.00 0.00 90 1018.6
20260504000538 18 128 0.0 3.2 0.00 0.00 0.00 90 1018.6
20260504000437 18 168 0.0 0.0 0.00 0.00 0.00 90 1018.5
20260504000340 18 168 0.0 1.6 0.00 0.00 0.00 90 1018.5
20260504000241 18 168 0.0 1.6 0.00 0.00 0.00 90 1018.5
20260504000138 18 168 0.0 1.6 0.00 0.00 0.00 90 1018.5
20260504000037 18 168 0.0 1.6 0.00 0.00 0.00 90 1018.5
20260503235939 18 168 0.0 1.6 0.00 0.00 0.00 90 1018.6
20260503235840 18 168 0.0 1.6 0.00 0.00 0.00 90 1018.5
20260503235735 18 168 0.0 1.6 0.00 0.00 0.00 90 1018.6
20260503235636 18 168 0.0 3.2 0.00 0.00 0.00 90 1018.5
20260503235530 18 168 0.0 3.2 0.00 0.00 0.00 90 1018.6
20260503235425 18 206 0.0 3.2 0.00 0.00 0.00 90 1018.5
20260503235325 18 206 0.0 4.8 0.00 0.00 0.00 90 1018.6
20260503235219 18 206 0.0 4.8 0.00 0.00 0.00 90 1018.7
20260503235126 18 206 0.0 4.8 0.00 0.00 0.00 90 1018.6
20260503235018 18 206 0.0 4.8 0.00 0.00 0.00 90 1018.6
20260503234912 18 206 0.0 4.8 0.00 0.00 0.00 90 1018.7
20260503234813 18 206 1.6 4.8 0.00 0.00 0.00 90 1018.7
20260503234712 18 206 1.6 6.4 0.00 0.00 0.00 90 1018.7
20260503234513 18 214 1.6 6.4 0.00 0.00 0.00 90 1018.8
20260503234409 18 203 1.6 6.4 0.00 0.00 0.00 90 1018.8
20260503234309 18 214 1.6 6.4 0.00 0.00 0.00 90 1018.8
20260503234209 18 194 1.6 6.4 0.00 0.00 0.00 90 1018.8
20260503234011 18 187 3.2 6.4 0.00 0.00 0.00 90 1018.8
20260503233914 18 190 4.8 8.0 0.00 0.00 0.00 90 1018.8
20260503233810 18 196 3.2 8.0 0.00 0.00 0.00 90 1018.9
20260503233710 18 223 0.0 8.0 0.00 0.00 0.00 91 1018.9
20260503233509 18 231 3.2 8.0 0.00 0.00 0.00 91 1019.0
20260503233409 18 221 3.2 8.0 0.00 0.00 0.00 91 1019.0
20260503233310 18 242 1.6 8.0 0.00 0.00 0.00 91 1019.0
20260503233209 18 230 3.2 8.0 0.00 0.00 0.00 91 1019.1
20260503233009 18 237 3.2 8.0 0.00 0.00 0.00 91 1019.0
20260503232922 18 202 1.6 8.0 0.00 0.00 0.00 91 1019.1
20260503232811 18 242 3.2 8.0 0.00 0.00 0.00 91 1019.0
20260503232710 18 261 4.8 8.0 0.00 0.00 0.00 91 1019.0
20260503232511 18 219 3.2 9.7 0.00 0.00 0.00 91 1019.0
20260503232410 18 254 3.2 9.7 0.00 0.00 0.00 91 1019.1
20260503232311 18 265 3.2 9.7 0.00 0.00 0.00 91 1019.1
20260503232208 18 246 3.2 9.7 0.00 0.00 0.00 91 1019.1
20260503232010 18 271 3.2 9.7 0.00 0.00 0.00 91 1019.1
20260503231911 18 271 4.8 9.7 0.00 0.00 0.00 92 1019.1
20260503231809 18 244 4.8 9.7 0.00 0.00 0.00 92 1019.1
20260503231710 18 277 3.2 9.7 0.00 0.00 0.00 92 1019.1
20260503231508 18 277 3.2 6.4 0.00 0.00 0.00 92 1019.0
20260503231411 18 271 1.6 6.4 0.00 0.00 0.00 92 1019.0
20260503231311 18 277 0.0 6.4 0.00 0.00 0.00 92 1019.0
20260503231208 18 243 1.6 4.8 0.00 0.00 0.00 92 1019.0
20260503231012 18 242 1.6 6.4 0.00 0.00 0.00 92 1019.0
20260503230945 18 248 1.6 6.4 0.00 0.00 0.00 92 1018.9
20260503230926 18 241 1.6 6.4 0.00 0.00 0.00 92 1018.9
20260503230904 18 265 1.6 6.4 0.00 0.00 0.00 92 1018.9
20260503230841 18 275 1.6 6.4 0.00 0.00 0.00 92 1018.9
20260503230510 18 275 1.6 6.4 0.00 0.00 0.00 92 1018.9
20260503230410 18 268 3.2 6.4 0.00 0.00 0.00 92 1018.8
20260503230309 18 268 3.2 6.4 0.00 0.00 0.00 92 1018.8
20260503230211 18 275 3.2 6.4 0.00 0.00 0.00 92 1019.0
20260503230013 18 273 3.2 6.4 0.00 0.00 0.00 92 1018.9
20260503225912 18 259 3.2 6.4 0.00 0.00 0.00 92 1018.9
20260503225812 18 259 1.6 6.4 0.00 0.00 0.00 92 1018.8
20260503225711 18 260 1.6 3.2 0.00 0.00 0.00 92 1018.9
20260503225511 18 260 0.0 3.2 0.00 0.00 0.00 92 1018.8
20260503225410 18 260 0.0 3.2 0.00 0.00 0.00 92 1018.8
20260503225313 18 267 0.0 0.0 0.00 0.00 0.00 92 1018.7
20260503225208 18 267 0.0 0.0 0.00 0.00 0.00 92 1018.6
20260503225010 18 267 0.0 0.0 0.00 0.00 0.00 92 1018.5
20260503224909 18 267 0.0 0.0 0.00 0.00 0.00 92 1018.6
20260503224810 18 267 0.0 0.0 0.00 0.00 0.00 92 1018.5
20260503224710 18 267 0.0 0.0 0.00 0.00 0.00 92 1018.5
20260503224513 17 267 0.0 0.0 0.00 0.00 0.00 92 1018.5
20260503224409 17 267 0.0 0.0 0.00 0.00 0.00 92 1018.5
20260503224313 17 267 0.0 0.0 0.00 0.00 0.00 92 1018.5
20260503224211 17 267 0.0 0.0 0.00 0.00 0.00 92 1018.4
20260503224011 17 267 0.0 0.0 0.00 0.00 0.00 92 1018.5
20260503223909 17 267 0.0 0.0 0.00 0.00 0.00 92 1018.5
20260503223810 17 267 0.0 0.0 0.00 0.00 0.00 92 1018.4
20260503223708 17 267 0.0 0.0 0.00 0.00 0.00 92 1018.4
20260503223509 17 267 0.0 0.0 0.00 0.00 0.00 92 1018.4
20260503223415 17 267 0.0 0.0 0.00 0.00 0.00 92 1018.3
20260503223310 17 267 0.0 0.0 0.00 0.00 0.00 92 1018.3
20260503223209 17 267 0.0 0.0 0.00 0.00 0.00 92 1018.3
20260503223008 17 267 0.0 0.0 0.00 0.00 0.00 92 1018.2
20260503222922 17 267 0.0 0.0 0.00 0.00 0.00 92 1018.2
20260503222824 17 267 0.0 0.0 0.00 0.00 0.00 92 1018.3
20260503222710 17 267 0.0 0.0 0.00 0.00 0.00 92 1018.1
20260503222510 17 267 0.0 0.0 0.00 0.00 0.00 92 1018.2
20260503222410 17 267 0.0 0.0 0.00 0.00 0.00 92 1018.1
20260503222309 17 267 0.0 3.2 0.00 0.00 0.00 93 1018.1
20260503222209 17 267 0.0 4.8 0.00 0.00 0.00 93 1018.1
20260503222009 17 267 0.0 4.8 0.00 0.00 0.00 93 1018.1
20260503221941 17 267 0.0 4.8 0.00 0.00 0.00 93 1018.1
20260503221911 17 267 0.0 4.8 0.00 0.00 0.00 93 1018.1
20260503221852 17 267 0.0 4.8 0.00 0.00 0.00 93 1018.2
20260503221828 17 267 0.0 4.8 0.00 0.00 0.00 93 1018.2
20260503221511 17 267 1.6 4.8 0.00 0.00 0.00 92 1018.2
20260503221409 17 267 3.2 4.8 0.00 0.00 0.00 92 1018.1
20260503221311 17 268 1.6 4.8 0.00 0.00 0.00 92 1018.0
20260503221211 17 279 0.0 3.2 0.00 0.00 0.00 92 1018.1
20260503221014 17 258 1.6 3.2 0.00 0.00 0.00 92 1018.0
20260503220911 17 258 0.0 3.2 0.00 0.00 0.00 92 1018.0
20260503220808 17 111 0.0 0.0 0.00 0.00 0.00 92 1018.1
20260503220710 17 111 0.0 0.0 0.00 0.00 0.00 92 1018.0
20260503220514 17 111 0.0 0.0 0.00 0.00 0.00 93 1018.1
20260503220409 17 111 0.0 0.0 0.00 0.00 0.00 93 1018.1
20260503220310 17 111 0.0 0.0 0.00 0.00 0.00 93 1018.1
20260503220209 17 111 0.0 0.0 0.00 0.00 0.00 93 1018.1
20260503220011 17 111 0.0 1.6 0.00 0.00 0.00 93 1018.1
20260503215909 17 111 0.0 3.2 0.00 0.00 0.00 93 1018.0
20260503215821 17 111 0.0 3.2 0.00 0.00 0.00 93 1018.1
20260503215710 17 111 0.0 3.2 0.00 0.00 0.00 93 1018.0
20260503215511 17 111 0.0 3.2 0.00 0.00 0.00 93 1018.0
20260503215410 17 111 0.0 3.2 0.00 0.00 0.00 93 1018.0
20260503215311 17 111 0.0 3.2 0.00 0.00 0.00 93 1017.9
20260503215210 17 111 1.6 3.2 0.00 0.00 0.00 93 1017.8
20260503215009 17 120 1.6 3.2 0.00 0.00 0.00 93 1017.9
20260503214910 17 123 1.6 3.2 0.00 0.00 0.00 93 1017.8
20260503214812 17 140 0.0 3.2 0.00 0.00 0.00 93 1017.8
20260503214710 17 148 0.0 3.2 0.00 0.00 0.00 93 1017.9
20260503214511 17 148 0.0 3.2 0.00 0.00 0.00 93 1017.9
20260503214442 17 148 0.0 3.2 0.00 0.00 0.00 93 1017.9
20260503214414 17 148 0.0 3.2 0.00 0.00 0.00 93 1018.0
20260503214355 17 242 0.0 4.8 0.00 0.00 0.00 93 1017.9
20260503214329 17 242 0.0 6.4 0.00 0.00 0.00 93 1017.9
20260503214012 17 268 0.0 6.4 0.00 0.00 0.00 93 1018.0
20260503213934 16 268 0.0 6.4 0.00 0.00 0.00 93 1017.9
20260503213914 16 268 0.0 6.4 0.00 0.00 0.00 93 1017.8
20260503213848 16 268 0.0 6.4 0.00 0.00 0.00 93 1017.9
20260503213823 16 268 0.0 6.4 0.00 0.00 0.00 93 1018.0
20260503213509 16 268 1.6 6.4 0.00 0.00 0.00 93 1018.0
20260503213413 16 268 3.2 6.4 0.00 0.00 0.00 93 1018.1
20260503213318 16 268 3.2 6.4 0.00 0.00 0.00 93 1018.1
20260503213212 16 285 3.2 6.4 0.00 0.00 0.00 93 1018.2
20260503213012 16 277 1.6 3.2 0.00 0.00 0.00 93 1018.0
20260503212910 16 278 0.0 3.2 0.00 0.00 0.00 93 1018.0
20260503212822 16 230 0.0 1.6 0.00 0.00 0.00 93 1017.9
20260503212702 16 230 0.0 1.6 0.00 0.00 0.00 93 1017.8
20260503212602 16 230 0.0 1.6 0.00 0.00 0.00 93 1017.8
20260503212456 16 230 0.0 1.6 0.00 0.00 0.00 93 1017.8
20260503212432 16 230 0.0 1.6 0.00 0.00 0.00 93 1017.8
20260503212405 16 230 0.0 1.6 0.00 0.00 0.00 93 1017.8
20260503212342 16 230 0.0 1.6 0.00 0.00 0.00 93 1017.7
20260503212046 16 230 0.0 1.6 0.00 0.00 0.00 93 1017.8
20260503211939 16 230 0.0 1.6 0.00 0.00 0.00 93 1017.7
20260503211837 16 230 0.0 1.6 0.00 0.00 0.00 93 1017.8
20260503211742 16 230 0.0 1.6 0.00 0.00 0.00 93 1017.7
20260503211639 16 230 0.0 0.0 0.00 0.00 0.00 93 1017.8
20260503211539 16 230 0.0 0.0 0.00 0.00 0.00 93 1017.8
20260503211440 16 230 0.0 0.0 0.00 0.00 0.00 93 1017.8
20260503211338 16 230 0.0 0.0 0.00 0.00 0.00 93 1017.8
20260503211238 16 230 0.0 0.0 0.00 0.00 0.00 92 1017.8
20260503211138 16 230 0.0 1.6 0.00 0.00 0.00 93 1017.8
20260503211038 16 230 0.0 1.6 0.00 0.00 0.00 92 1017.7
20260503210938 16 230 0.0 1.6 0.00 0.00 0.00 92 1017.7
20260503210837 16 230 0.0 1.6 0.00 0.00 0.00 92 1017.7
20260503210736 16 230 0.0 1.6 0.00 0.00 0.00 92 1017.7
20260503210638 16 230 0.0 1.6 0.00 0.00 0.00 92 1017.7
20260503210538 16 230 0.0 1.6 0.00 0.00 0.00 92 1017.5
20260503210437 16 230 0.0 1.6 0.00 0.00 0.00 92 1017.6
20260503210338 16 230 0.0 1.6 0.00 0.00 0.00 92 1017.5
20260503210236 16 230 0.0 1.6 0.00 0.00 0.00 92 1017.6
20260503210136 16 230 0.0 1.6 0.00 0.00 0.00 92 1017.5
20260503210036 16 230 0.0 1.6 0.00 0.00 0.00 92 1017.6
20260503205936 16 230 0.0 1.6 0.00 0.00 0.00 92 1017.6
20260503205836 16 230 0.0 0.0 0.00 0.00 0.00 92 1017.5
20260503205801 16 230 0.0 0.0 0.00 0.00 0.00 92 1017.6
20260503205635 16 230 0.0 0.0 0.00 0.00 0.00 92 1017.5
20260503205527 16 230 0.0 0.0 0.00 0.00 0.00 92 1017.4
20260503205420 16 230 0.0 0.0 0.00 0.00 0.00 92 1017.5
20260503205323 16 230 0.0 1.6 0.00 0.00 0.00 92 1017.5
20260503205221 16 230 0.0 1.6 0.00 0.00 0.00 92 1017.5
20260503205013 16 230 0.0 3.2 0.00 0.00 0.00 92 1017.6
20260503204911 16 230 0.0 4.8 0.00 0.00 0.00 92 1017.5
20260503204813 16 230 0.0 4.8 0.00 0.00 0.00 92 1017.6
20260503204712 16 230 0.0 4.8 0.00 0.00 0.00 92 1017.5
20260503204510 16 230 0.0 4.8 0.00 0.00 0.00 92 1017.6
20260503204410 16 230 0.0 4.8 0.00 0.00 0.00 92 1017.6
20260503204310 16 230 1.6 4.8 0.00 0.00 0.00 92 1017.7
20260503204209 16 230 1.6 4.8 0.00 0.00 0.00 92 1017.6
20260503204011 16 213 0.0 4.8 0.00 0.00 0.00 92 1017.6
20260503203910 16 275 0.0 1.6 0.00 0.00 0.00 92 1017.6
20260503203811 16 275 1.6 1.6 0.00 0.00 0.00 92 1017.7
20260503203709 16 275 0.0 1.6 0.00 0.00 0.00 92 1017.7
20260503203509 16 311 0.0 3.2 0.00 0.00 0.00 92 1017.7
20260503203440 16 311 0.0 3.2 0.00 0.00 0.00 92 1017.6
20260503203418 16 311 0.0 3.2 0.00 0.00 0.00 92 1017.6
20260503203352 16 311 0.0 3.2 0.00 0.00 0.00 92 1017.5
20260503203326 16 311 0.0 3.2 0.00 0.00 0.00 92 1017.5
20260503203011 16 311 0.0 3.2 0.00 0.00 0.00 92 1017.5
20260503202907 16 311 0.0 3.2 0.00 0.00 0.00 92 1017.4
20260503202807 16 311 0.0 3.2 0.00 0.00 0.00 92 1017.5
20260503202732 16 311 0.0 3.2 0.00 0.00 0.00 92 1017.6
20260503202608 16 311 0.0 3.2 0.00 0.00 0.00 92 1017.4
20260503202502 16 349 0.0 1.6 0.00 0.00 0.00 92 1017.4
20260503202402 16 349 0.0 1.6 0.00 0.00 0.00 92 1017.3
20260503202304 16 349 0.0 0.0 0.00 0.00 0.00 92 1017.4
20260503202154 16 349 0.0 0.0 0.00 0.00 0.00 92 1017.3
20260503202044 16 349 0.0 0.0 0.00 0.00 0.00 92 1017.2
20260503201937 16 349 0.0 0.0 0.00 0.00 0.00 92 1017.2
20260503201836 16 349 0.0 0.0 0.00 0.00 0.00 92 1017.2
20260503201738 16 349 0.0 0.0 0.00 0.00 0.00 92 1017.2
20260503201638 16 349 0.0 0.0 0.00 0.00 0.00 92 1017.2
20260503201539 16 349 0.0 0.0 0.00 0.00 0.00 92 1017.2
20260503201437 16 349 0.0 0.0 0.00 0.00 0.00 92 1017.2
20260503201337 16 349 0.0 0.0 0.00 0.00 0.00 92 1017.2
20260503201237 16 349 0.0 0.0 0.00 0.00 0.00 92 1017.2
20260503201136 16 349 0.0 0.0 0.00 0.00 0.00 92 1017.2
20260503201040 16 349 0.0 0.0 0.00 0.00 0.00 92 1017.2
20260503200938 16 349 0.0 0.0 0.00 0.00 0.00 92 1017.2
20260503200839 16 349 0.0 0.0 0.00 0.00 0.00 92 1017.2
20260503200740 16 349 0.0 0.0 0.00 0.00 0.00 92 1017.1
20260503200638 16 349 0.0 0.0 0.00 0.00 0.00 92 1017.1
20260503200541 16 349 0.0 0.0 0.00 0.00 0.00 92 1017.1
20260503200438 16 349 0.0 0.0 0.00 0.00 0.00 92 1017.0
20260503200337 16 349 0.0 0.0 0.00 0.00 0.00 92 1017.0
20260503200245 16 349 0.0 0.0 0.00 0.00 0.00 92 1017.0
20260503200138 16 349 0.0 0.0 0.00 0.00 0.00 92 1017.0
20260503200037 16 349 0.0 0.0 0.00 0.00 0.00 92 1016.9
20260503195940 16 349 0.0 1.6 0.00 0.00 0.00 92 1016.9
20260503195838 16 349 0.0 1.6 0.00 0.00 0.00 92 1017.0
20260503195741 16 349 0.0 1.6 0.00 0.00 0.00 92 1016.9
20260503195637 16 349 0.0 1.6 0.00 0.00 0.00 92 1017.0
20260503195535 16 349 0.0 1.6 0.00 0.00 0.00 92 1016.9
20260503195423 16 349 0.0 1.6 0.00 0.00 0.00 92 1016.9
20260503195321 16 349 0.0 1.6 0.00 0.00 0.00 92 1017.0
20260503195215 16 349 0.0 1.6 0.00 0.00 0.00 92 1017.0
20260503195014 16 349 0.0 1.6 0.00 0.00 0.00 92 1016.8
20260503194910 16 349 0.0 1.6 0.00 0.00 0.00 92 1016.8
20260503194810 16 349 0.0 1.6 0.00 0.00 0.00 92 1016.9
20260503194710 16 349 0.0 1.6 0.00 0.00 0.00 92 1016.8
20260503194511 16 349 0.0 0.0 0.00 0.00 0.00 92 1016.9
20260503194413 16 349 0.0 0.0 0.00 0.00 0.00 92 1016.9
20260503194310 16 349 0.0 0.0 0.00 0.00 0.00 92 1016.8
20260503194233 16 349 0.0 0.0 0.00 0.00 0.00 92 1016.8
20260503194133 16 349 0.0 0.0 0.00 0.00 0.00 92 1016.9
20260503194112 16 349 0.0 0.0 0.00 0.00 0.00 92 1016.9
20260503193834 16 349 0.0 0.0 0.00 0.00 0.00 92 1016.8
20260503193810 16 349 0.0 0.0 0.00 0.00 0.00 92 1016.9
20260503193714 16 349 0.0 0.0 0.00 0.00 0.00 92 1016.8
20260503193438 16 349 0.0 0.0 0.00 0.00 0.00 92 1016.9
20260503193419 16 349 0.0 0.0 0.00 0.00 0.00 92 1016.8
20260503193359 16 349 0.0 0.0 0.00 0.00 0.00 92 1016.8
20260503193326 16 349 0.0 0.0 0.00 0.00 0.00 92 1016.9
20260503193011 16 349 0.0 0.0 0.00 0.00 0.00 91 1016.8
20260503192908 16 349 0.0 0.0 0.00 0.00 0.00 92 1016.7
20260503192813 16 349 0.0 0.0 0.00 0.00 0.00 92 1016.8
20260503192718 16 349 0.0 1.6 0.00 0.00 0.00 92 1016.8
20260503192510 16 349 0.0 1.6 0.00 0.00 0.00 91 1016.7
20260503192411 16 349 0.0 1.6 0.00 0.00 0.00 91 1016.8
20260503192309 16 349 0.0 1.6 0.00 0.00 0.00 91 1016.8
20260503192210 16 349 0.0 1.6 0.00 0.00 0.00 91 1016.8
20260503192009 16 349 0.0 1.6 0.00 0.00 0.00 91 1016.8
20260503191908 16 349 0.0 1.6 0.00 0.00 0.00 91 1016.8
20260503191809 16 349 0.0 1.6 0.00 0.00 0.00 91 1016.8
20260503191711 16 349 0.0 1.6 0.00 0.00 0.00 91 1016.9
20260503191510 16 349 0.0 1.6 0.00 0.00 0.00 91 1016.9
20260503191411 16 349 0.0 1.6 0.00 0.00 0.00 91 1016.8
20260503191308 16 349 0.0 0.0 0.00 0.00 0.00 91 1016.8
20260503191211 16 349 0.0 0.0 0.00 0.00 0.00 91 1016.8
20260503191010 16 349 0.0 0.0 0.00 0.00 0.00 91 1016.9
20260503190913 16 349 0.0 0.0 0.00 0.00 0.00 91 1016.9
20260503190812 16 349 0.0 0.0 0.00 0.00 0.00 91 1016.8
20260503190713 16 349 0.0 0.0 0.00 0.00 0.00 91 1016.8
20260503190509 16 349 0.0 0.0 0.00 0.00 0.00 91 1016.9
20260503190417 16 349 0.0 0.0 0.00 0.00 0.00 91 1016.8
20260503190309 16 349 0.0 0.0 0.00 0.00 0.00 91 1016.8
20260503190212 16 349 0.0 0.0 0.00 0.00 0.00 91 1016.8
20260503190012 16 349 0.0 0.0 0.00 0.00 0.00 91 1016.9
20260503185909 16 349 0.0 0.0 0.00 0.00 0.00 91 1016.9
20260503185809 16 349 0.0 0.0 0.00 0.00 0.00 91 1016.9
20260503185710 16 349 0.0 0.0 0.00 0.00 0.00 91 1016.8
20260503185512 16 349 0.0 0.0 0.00 0.00 0.00 91 1016.9
20260503185411 16 349 0.0 0.0 0.00 0.00 0.00 91 1016.8
20260503185309 16 349 0.0 0.0 0.00 0.00 0.00 91 1016.9
20260503185210 16 349 0.0 0.0 0.00 0.00 0.00 91 1016.9
20260503185010 16 349 0.0 0.0 0.00 0.00 0.00 91 1016.9
20260503184910 16 349 0.0 0.0 0.00 0.00 0.00 91 1016.9
20260503184810 16 349 0.0 1.6 0.00 0.00 0.00 91 1016.9
20260503184709 16 349 0.0 1.6 0.00 0.00 0.00 91 1017.0
20260503184510 16 349 0.0 1.6 0.00 0.00 0.00 91 1016.9
20260503184409 16 349 0.0 1.6 0.00 0.00 0.00 91 1016.9
20260503184309 16 349 0.0 1.6 0.00 0.00 0.00 91 1016.9
20260503184209 16 349 0.0 1.6 0.00 0.00 0.00 91 1017.0
20260503184010 16 349 0.0 1.6 0.00 0.00 0.00 91 1016.9
20260503183911 16 349 0.0 1.6 0.00 0.00 0.00 91 1016.8
20260503183809 16 349 0.0 1.6 0.00 0.00 0.00 91 1016.8
20260503183711 16 349 0.0 1.6 0.00 0.00 0.00 91 1016.9
20260503183511 16 349 0.0 1.6 0.00 0.00 0.00 91 1016.9
20260503183411 16 349 0.0 1.6 0.00 0.00 0.00 91 1016.8
20260503183309 16 349 0.0 1.6 0.00 0.00 0.00 91 1016.9
20260503183208 16 349 0.0 1.6 0.00 0.00 0.00 90 1016.9
20260503183008 16 349 0.0 1.6 0.00 0.00 0.00 90 1016.9
20260503182910 16 349 0.0 1.6 0.00 0.00 0.00 90 1016.9
20260503182812 16 349 0.0 1.6 0.00 0.00 0.00 90 1016.9
20260503182712 16 349 0.0 1.6 0.00 0.00 0.00 90 1016.9
20260503182509 16 349 0.0 1.6 0.00 0.00 0.00 90 1016.9
20260503182408 16 349 0.0 1.6 0.00 0.00 0.00 90 1017.0
20260503182308 16 302 0.0 0.0 0.00 0.00 0.00 90 1016.9
20260503182209 16 302 0.0 0.0 0.00 0.00 0.00 90 1016.8
20260503182014 16 302 0.0 0.0 0.00 0.00 0.00 90 1016.9
20260503181908 16 302 0.0 0.0 0.00 0.00 0.00 90 1016.7
20260503181810 16 302 0.0 0.0 0.00 0.00 0.00 90 1016.7
20260503181709 16 302 0.0 0.0 0.00 0.00 0.00 90 1016.7
20260503181508 16 302 0.0 0.0 0.00 0.00 0.00 90 1016.7
20260503181412 16 302 0.0 0.0 0.00 0.00 0.00 90 1016.8
20260503181311 16 302 0.0 0.0 0.00 0.00 0.00 90 1016.7
20260503181210 16 302 0.0 0.0 0.00 0.00 0.00 90 1016.7
20260503181009 16 302 0.0 0.0 0.00 0.00 0.00 90 1016.8
20260503180910 16 302 0.0 0.0 0.00 0.00 0.00 90 1016.8
20260503180810 16 302 0.0 0.0 0.00 0.00 0.00 90 1016.8
20260503180711 16 302 0.0 0.0 0.00 0.00 0.00 90 1016.8
20260503180510 16 302 0.0 0.0 0.00 0.00 0.00 90 1016.8
20260503180430 16 302 0.0 0.0 0.00 0.00 0.00 90 1016.8
20260503180411 16 302 0.0 0.0 0.00 0.00 0.00 90 1016.8
20260503180349 16 302 0.0 0.0 0.00 0.00 0.00 90 1016.8
20260503180100 16 302 0.0 0.0 0.00 0.00 0.00 90 1016.8
20260503175958 16 302 0.0 0.0 0.00 0.00 0.00 90 1016.8
20260503175852 16 302 0.0 0.0 0.00 0.00 0.00 90 1016.7
20260503175753 16 302 0.0 0.0 0.00 0.00 0.00 90 1016.8
20260503175647 16 302 0.0 0.0 0.00 0.00 0.00 90 1016.8
20260503175549 16 302 0.0 0.0 0.00 0.00 0.00 90 1016.9
20260503175444 16 302 0.0 0.0 0.00 0.00 0.00 90 1016.9
20260503175344 16 302 0.0 0.0 0.00 0.00 0.00 90 1016.8
20260503175245 16 302 0.0 0.0 0.00 0.00 0.00 90 1016.9
20260503175143 16 302 0.0 0.0 0.00 0.00 0.00 90 1016.9
20260503175044 16 302 0.0 0.0 0.00 0.00 0.00 90 1017.0
20260503174938 16 302 0.0 0.0 0.00 0.00 0.00 90 1017.0
20260503174838 16 302 0.0 0.0 0.00 0.00 0.00 90 1016.9
20260503174739 16 302 0.0 0.0 0.00 0.00 0.00 90 1016.9